Wind_Speed
29 29 32 31 32 31 28 23 22 17 17 18 18 18 20 18 15 17 15 14 14 13 14 13 11 12 10 8 8 9 10 10 11 10 9 8 8 8 6 11 11 11 12
26 27 30 29 32 32 31 28 23 23 22 23 20 19 15 17 14 15 18 16 14 14 12 16 16 13 11 10 11 8 11 12 10 10 10 9 10 10 10 12 13 12 12
26 25 27 30 31 34 34 33 28 26 24 23 23 22 21 20 21 20 18 17 17 17 16 15 14 14 14 13 12 12 13 12 13 11 11 10 11 12 14 15 15 15 16
30 28 25 25 27 30 31 33 32 31 29 27 24 25 21 21 21 21 20 20 20 20 19 18 17 16 15 15 13 13 13 15 15 15 15 15 14 15 16 16 16 16 17
34 33 29 27 23 24 26 27 26 27 28 29 27 26 24 25 25 24 23 21 21 20 20 21 18 17 16 15 16 15 15 15 14 15 16 16 14 15 17 17 19 17 18
34 34 34 31 28 23 20 24 24 25 24 25 25 28 27 25 23 21 20 22 21 22 22 20 20 19 18 17 18 17 17 17 18 19 17 17 17 17 17 18 19 21 25
34 35 34 32 31 23 21 20 23 25 25 24 26 26 25 26 24 22 22 22 22 22 23 23 23 22 21 20 18 19 19 19 21 22 22 23 19 18 17 19 21 22 25
40 38 36 31 30 29 24 21 21 23 26 25 25 28 29 26 24 24 23 24 23 23 24 25 26 26 25 24 22 21 20 19 19 21 20 18 18 18 20 21 21 24 26
38 38 36 31 29 29 26 23 23 24 22 23 22 24 25 24 25 24 26 26 27 27 26 26 27 29 27 26 25 25 23 23 23 22 21 21 20 21 23 24 25 26 30
38 37 37 36 34 28 28 25 23 24 24 21 24 28 28 24 26 26 26 25 24 24 24 25 27 26 25 26 26 26 27 27 25 23 23 24 24 24 25 26 26 28 29
31 30 32 31 31 31 26 25 25 24 24 23 21 19 21 21 22 21 21 23 23 22 23 22 22 22 24 25 25 25 25 23 22 21 20 20 22 24 25 26 27 27 27
18 25 26 29 25 25 25 26 25 25 24 21 19 19 18 18 18 19 18 18 19 20 18 16 15 14 16 18 19 19 17 19 19 18 21 24 24 24 23 24 24 24 24
28 25 30 28 24 20 25 27 27 25 24 23 23 20 18 17 18 17 16 16 15 16 17 14 13 13 12 11 13 12 13 15 16 18 17 16 17 18 19 19 20 22 23
29 32 28 24 22 18 26 25 27 25 24 22 22 23 21 19 18 18 16 15 16 14 13 14 14 14 13 13 12 12 11 9 8 8 9 8 8 9 10 11 12 13 15
30 32 30 26 22 21 27 27 25 21 21 21 21 20 19 19 18 17 16 17 15 13 12 14 15 13 10 9 7 6 5 4 3 1 1 3 5 6 7 8 9 9 9
28 30 29 30 23 25 31 27 24 24 23 21 20 18 15 15 14 16 15 14 15 13 12 12 11 10 9 8 7 6 6 5 4 3 2 3 4 6 7 7 9 10 10
24 28 26 19 23 30 29 25 26 26 21 18 16 17 19 19 17 17 16 16 17 16 15 13 11 11 10 9 8 8 7 7 6 4 1 1 3 4 6 8 10 11 13
26 24 25 19 25 28 27 26 27 23 17 18 18 17 18 20 20 18 18 19 23 21 17 15 14 13 10 8 7 7 8 7 6 3 2 1 1 3 7 10 12 14 14
22 23 26 23 26 26 27 27 25 17 12 11 15 16 17 18 18 17 18 18 20 21 21 18 15 13 11 8 6 5 6 7 7 6 6 5 4 6 7 8 9 10 12
32 21 26 25 26 27 27 26 23 16 12 11 9 13 16 18 18 19 19 20 20 20 19 17 16 15 14 12 8 6 5 5 5 7 7 8 8 8 8 6 5 5 5
30 32 29 24 27 25 29 24 19 15 14 14 9 10 13 15 16 19 21 21 21 20 20 19 19 18 16 15 15 12 11 10 9 7 7 9 11 10 8 6 2 1 3
25 27 36 32 25 23 25 20 18 17 17 17 15 15 13 14 15 18 20 22 21 21 21 19 20 20 21 20 18 17 16 13 9 8 12 12 12 13 11 8 6 3 5
29 32 30 31 22 19 22 23 19 17 14 17 18 19 19 18 16 18 19 20 21 23 23 23 23 22 22 26 25 22 19 15 14 10 10 12 13 13 12 10 11 11 10
23 28 26 23 24 24 26 26 22 19 16 15 20 21 20 17 16 16 16 17 19 18 20 21 19 18 16 17 23 23 22 19 17 17 13 14 12 10 12 12 11 11 12
21 21 26 25 23 24 27 25 22 21 21 19 18 22 21 18 14 16 16 17 19 20 20 21 21 19 18 20 22 26 23 20 17 15 16 15 15 15 16 17 18 18 17
19 18 24 26 26 25 23 21 22 22 24 23 20 19 23 20 17 17 18 17 18 17 18 19 19 18 19 18 21 24 23 21 20 21 21 20 20 19 19 20 21 23 24
Wind_Direction
217 213 212 215 218 217 222 224 224 220 220 222 231 242 245 243 261 247 243 248 250 252 247 254 252 256 254 254 255 258 258 267 271 272 281 276 243 262 264 246 261 268 266
216 217 216 219 219 222 225 228 236 234 232 234 240 244 242 246 242 256 251 252 258 253 252 247 253 255 250 256 249 260 260 259 265 268 271 280 270 263 255 254 259 271 276
214 213 218 222 224 229 234 236 238 240 244 246 238 240 240 243 250 257 255 258 261 261 259 258 255 256 255 259 257 254 257 262 263 269 275 274 269 269 263 264 271 275 276
219 217 217 220 226 232 237 242 247 249 250 242 240 243 248 249 252 257 263 267 266 261 260 263 263 266 264 264 265 264 271 260 262 268 271 273 273 275 272 268 274 279 282
221 223 221 223 225 231 238 242 245 248 249 243 242 246 250 253 259 266 265 264 267 270 265 262 260 262 267 269 265 264 268 267 265 268 273 272 270 275 275 279 279 283 281
222 224 227 224 229 228 234 239 241 241 244 246 245 245 249 254 255 258 262 262 266 268 269 269 265 260 256 261 263 266 263 264 265 265 268 270 271 278 277 279 279 279 284
226 226 230 229 226 227 233 242 241 241 245 246 247 250 249 246 252 255 259 262 265 265 266 265 262 261 261 256 257 262 263 265 266 272 273 271 277 283 286 283 284 281 281
235 231 231 234 237 237 235 240 245 248 252 247 249 254 259 257 249 253 257 262 264 265 265 267 266 262 262 260 257 258 263 266 269 271 278 278 277 277 277 279 278 280 281
239 240 235 234 237 240 242 244 248 247 250 252 248 263 258 252 252 251 256 262 265 267 266 265 266 264 262 262 259 255 259 263 270 270 271 273 278 278 276 279 281 283 283
240 242 246 244 241 242 245 249 248 250 253 247 238 244 257 256 257 259 259 259 262 265 267 266 263 262 262 257 257 258 262 268 270 267 267 271 276 277 277 278 280 280 281
241 239 239 239 247 248 244 248 248 248 249 255 258 256 257 257 258 255 257 259 261 262 265 265 263 260 258 252 253 258 266 269 265 266 271 274 274 274 275 275 275 275 277
246 235 233 232 225 236 239 246 242 244 246 248 244 254 254 251 251 253 253 258 261 261 262 264 263 253 248 248 250 254 264 259 258 267 275 281 282 281 280 280 279 275 271
257 256 246 225 217 216 240 246 245 242 243 242 241 247 246 247 256 252 253 258 259 259 256 256 250 243 242 241 243 257 263 275 279 278 278 281 286 289 289 286 284 281 278
249 248 241 225 212 212 240 241 244 237 241 234 240 253 252 252 245 243 247 253 256 263 252 241 238 238 240 247 255 263 266 262 261 271 280 290 298 303 306 307 305 297 290
238 235 239 229 210 216 230 232 233 235 237 240 245 251 251 241 251 244 255 255 244 243 243 228 230 233 235 238 232 214 200 206 199 201 352 4 355 354 355 352 350 345 342
263 241 230 216 210 214 227 222 227 227 232 236 244 234 227 232 232 245 258 241 234 238 227 219 215 213 206 196 187 186 176 169 158 139 81 36 23 20 20 25 33 38 46
239 232 221 209 211 219 221 222 228 226 229 232 229 235 231 228 238 253 247 237 227 228 217 205 196 191 187 187 187 187 186 173 169 158 143 35 26 43 61 68 69 66 69
211 218 217 222 209 219 224 226 226 230 228 234 237 243 239 238 242 242 231 227 227 219 209 199 190 188 186 183 187 194 193 192 187 191 235 292 11 96 97 91 86 67 58
202 202 218 199 217 223 221 217 216 205 199 218 231 235 236 233 232 224 218 212 207 201 201 203 198 196 199 198 204 209 209 217 221 225 230 228 208 163 136 109 95 75 60
220 227 201 216 218 216 212 208 207 198 197 214 223 230 230 226 222 215 207 200 197 203 212 220 219 217 219 223 230 231 242 236 240 255 237 221 204 185 166 137 109 75 49
218 203 214 222 227 217 210 211 212 210 220 229 229 231 237 237 233 223 214 209 210 213 221 228 232 234 230 230 233 234 246 246 258 245 238 227 214 200 188 184 178 34 19
214 219 220 226 222 221 218 214 217 219 225 231 227 224 223 228 230 228 224 221 224 230 234 239 242 243 246 242 239 241 246 250 232 253 231 223 215 212 212 223 229 238 304
224 226 232 233 230 226 218 217 216 215 227 235 231 228 229 234 233 229 225 229 234 240 241 239 246 248 252 252 245 243 242 243 240 246 225 207 206 208 217 229 244 259 268
224 220 220 220 223 224 214 211 214 221 231 235 230 228 230 232 233 234 231 233 231 229 233 235 236 237 253 265 244 230 234 241 237 231 223 211 210 219 237 244 256 267 267
204 211 217 219 220 214 211 215 221 227 231 235 237 232 230 233 233 239 236 238 234 229 219 228 235 243 248 262 263 234 231 229 224 239 222 225 238 246 259 264 264 263 269
209 220 224 228 213 211 215 231 237 239 236 237 242 230 220 227 247 235 230 214 220 224 229 233 241 237 240 258 263 236 230 229 233 237 239 244 249 255 255 259 268 273 270
Height
1511 1515 1520 1524 1529 1533 1535 1538 1541 1545 1547 1549 1551 1552 1554 1556 1555 1557 1558 1558 1558 1557 1558 1558 1559 1558 1558 1559 1559 1558 1559 1561 1561 1560 1559 1560 1559 1559 1559 1560 1561 1562 1562
1507 1512 1516 1521 1525 1529 1532 1535 1538 1541 1544 1547 1549 1550 1551 1553 1554 1555 1555 1556 1555 1555 1555 1556 1556 1556 1556 1557 1557 1556 1557 1557 1558 1557 1557 1558 1557 1557 1557 1558 1559 1559 1559
1503 1507 1512 1516 1520 1524 1528 1531 1535 1537 1540 1543 1544 1546 1548 1549 1551 1552 1553 1553 1554 1554 1554 1554 1555 1554 1554 1554 1554 1554 1555 1555 1555 1555 1555 1555 1555 1555 1554 1555 1555 1555 1556
1500 1504 1508 1511 1515 1519 1523 1526 1530 1532 1535 1537 1539 1541 1543 1546 1548 1549 1550 1550 1550 1551 1551 1551 1551 1551 1550 1551 1551 1552 1553 1553 1552 1553 1553 1553 1552 1552 1552 1552 1551 1552 1552
1495 1499 1501 1506 1510 1513 1517 1521 1525 1527 1530 1532 1534 1536 1538 1541 1543 1545 1546 1547 1548 1547 1548 1548 1548 1547 1548 1548 1548 1549 1549 1549 1549 1549 1550 1550 1550 1549 1548 1548 1547 1547 1547
1489 1491 1497 1500 1505 1507 1510 1514 1518 1522 1524 1527 1529 1531 1533 1535 1538 1540 1542 1543 1545 1544 1543 1543 1543 1544 1544 1544 1545 1545 1546 1546 1546 1545 1545 1545 1545 1545 1545 1544 1544 1543 1541
1483 1488 1492 1494 1500 1503 1505 1509 1511 1515 1519 1523 1525 1527 1528 1529 1532 1534 1536 1537 1538 1538 1538 1539 1539 1539 1540 1540 1540 1541 1541 1541 1541 1541 1541 1541 1541 1540 1541 1539 1538 1537 1535
1479 1483 1486 1489 1494 1498 1501 1504 1506 1508 1513 1517 1519 1521 1521 1524 1526 1528 1529 1531 1532 1532 1532 1533 1533 1534 1535 1536 1536 1536 1535 1536 1537 1536 1536 1536 1536 1535 1534 1534 1533 1531 1530
1473 1477 1481 1484 1487 1491 1495 1498 1500 1503 1507 1508 1512 1516 1517 1518 1520 1521 1522 1523 1524 1525 1525 1525 1525 1525 1527 1529 1529 1529 1530 1530 1531 1531 1531 1531 1530 1529 1528 1527 1526 1525 1522
1466 1470 1475 1478 1481 1484 1488 1492 1496 1498 1501 1506 1510 1511 1510 1511 1511 1514 1515 1517 1517 1518 1518 1518 1518 1518 1521 1522 1522 1523 1522 1524 1525 1525 1525 1525 1524 1522 1522 1521 1520 1518 1517
1463 1463 1467 1470 1475 1479 1482 1486 1489 1492 1495 1497 1500 1503 1504 1505 1506 1509 1509 1510 1511 1511 1511 1511 1511 1512 1513 1515 1516 1517 1518 1519 1519 1519 1519 1519 1518 1516 1515 1514 1512 1511 1510
1460 1461 1460 1464 1465 1471 1476 1481 1483 1485 1489 1490 1492 1495 1498 1500 1501 1503 1504 1505 1505 1505 1506 1506 1506 1506 1507 1508 1511 1512 1513 1513 1514 1514 1514 1513 1512 1510 1508 1507 1505 1504 1503
1454 1455 1456 1459 1459 1460 1470 1475 1480 1481 1482 1485 1487 1489 1491 1494 1496 1498 1499 1500 1500 1501 1501 1502 1502 1502 1503 1505 1506 1507 1508 1509 1509 1509 1509 1508 1506 1505 1503 1501 1499 1497 1496
1444 1445 1448 1451 1450 1450 1463 1469 1475 1477 1480 1481 1483 1484 1486 1489 1491 1493 1495 1496 1497 1497 1497 1497 1498 1499 1501 1502 1502 1503 1503 1504 1505 1506 1506 1504 1503 1501 1499 1497 1495 1493 1491
1431 1436 1438 1437 1440 1446 1457 1464 1471 1474 1477 1477 1479 1480 1481 1484 1488 1490 1492 1492 1493 1494 1494 1494 1495 1496 1497 1498 1499 1500 1500 1501 1503 1503 1504 1503 1501 1500 1497 1494 1492 1490 1487
1418 1423 1426 1429 1431 1441 1451 1459 1468 1471 1474 1474 1474 1476 1477 1481 1484 1487 1489 1489 1490 1491 1491 1492 1493 1494 1495 1496 1497 1498 1499 1499 1500 1501 1501 1501 1500 1498 1496 1494 1492 1490 1488
1410 1415 1416 1419 1430 1440 1448 1454 1465 1469 1467 1469 1470 1473 1475 1477 1480 1482 1484 1486 1488 1489 1488 1489 1491 1492 1493 1494 1496 1497 1497 1498 1498 1499 1499 1499 1498 1497 1495 1494 1493 1492 1490
1408 1409 1413 1421 1430 1439 1445 1453 1462 1463 1460 1463 1465 1469 1471 1473 1475 1476 1477 1480 1484 1486 1488 1490 1490 1491 1492 1493 1494 1495 1495 1496 1496 1496 1497 1498 1497 1496 1495 1493 1494 1493 1491
1408 1410 1405 1423 1431 1437 1446 1454 1459 1455 1453 1456 1460 1464 1466 1468 1471 1472 1473 1474 1479 1482 1486 1489 1489 1490 1491 1492 1493 1493 1494 1494 1494 1494 1494 1495 1495 1495 1495 1494 1493 1493 1492
1410 1414 1418 1422 1427 1438 1447 1450 1452 1449 1449 1454 1456 1459 1463 1465 1467 1469 1471 1472 1474 1480 1484 1487 1488 1488 1490 1490 1490 1491 1492 1492 1492 1492 1492 1492 1493 1493 1493 1493 1493 1492 1492
1408 1414 1415 1421 1430 1436 1441 1444 1444 1444 1447 1452 1453 1457 1461 1463 1466 1468 1469 1471 1473 1476 1479 1482 1484 1486 1487 1487 1488 1488 1489 1489 1489 1488 1488 1489 1489 1491 1491 1492 1492 1491 1491
1409 1414 1420 1424 1428 1429 1433 1436 1438 1441 1444 1447 1450 1454 1455 1458 1461 1463 1465 1467 1471 1475 1477 1479 1481 1482 1483 1483 1484 1484 1485 1485 1484 1484 1485 1485 1486 1488 1489 1489 1489 1489 1489
1405 1409 1414 1417 1420 1424 1428 1431 1436 1439 1440 1443 1447 1450 1451 1453 1456 1459 1460 1463 1466 1469 1472 1473 1475 1477 1477 1478 1479 1480 1480 1480 1481 1482 1481 1481 1483 1483 1484 1484 1486 1487 1486
1402 1406 1410 1414 1418 1422 1425 1429 1432 1434 1436 1438 1442 1446 1448 1449 1451 1454 1455 1458 1459 1460 1466 1469 1470 1471 1473 1472 1473 1474 1476 1478 1478 1478 1478 1478 1480 1481 1481 1481 1482 1483 1483
1397 1403 1408 1412 1417 1420 1423 1425 1428 1430 1431 1435 1438 1441 1444 1445 1444 1448 1450 1454 1455 1457 1457 1462 1464 1466 1468 1468 1468 1469 1470 1472 1473 1475 1475 1475 1476 1476 1477 1478 1479 1479 1479
1396 1402 1408 1410 1414 1417 1419 1421 1423 1425 1429 1432 1434 1434 1436 1438 1440 1443 1448 1449 1453 1453 1456 1456 1458 1460 1462 1462 1462 1463 1465 1467 1468 1470 1471 1470 1470 1471 1471 1472 1473 1473 1473